Time,TemperatureF,DewpointF,PressureIn,WindDirection,WindDirectionDegrees,WindSpeedMPH,WindSpeedGustMPH,Humidity,HourlyPrecipIn,Conditions,Clouds,dailyrainin,SoftwareType,DateUTC
2013-04-14 00:00:00,42.8,41.2,30.01,West,279,0.0,0.0,94,0.00,,,0.00,meteohub,2013-04-14 04:00:00,
2013-04-14 00:01:00,42.8,41.2,30.01,West,279,0.0,0.0,94,0.00,,,0.00,meteohub,2013-04-14 04:01:00,
2013-04-14 00:02:00,42.8,41.2,30.01,West,279,0.0,0.0,94,0.00,,,0.00,meteohub,2013-04-14 04:02:00,
2013-04-14 00:07:00,42.8,41.2,30.01,West,279,1.0,0.0,94,0.00,,,0.00,meteohub,2013-04-14 04:07:00,
2013-04-14 00:12:00,42.8,41.2,30.01,West,279,0.0,2.0,94,0.00,,,0.00,meteohub,2013-04-14 04:12:00,
2013-04-14 00:18:00,42.6,41.0,30.01,West,279,0.0,2.0,94,0.00,,,0.00,meteohub,2013-04-14 04:18:00,
2013-04-14 00:23:00,42.4,40.6,30.01,West,279,0.0,2.0,93,0.00,,,0.00,meteohub,2013-04-14 04:23:00,
2013-04-14 00:28:00,42.1,40.3,30.01,West,279,0.0,1.0,93,0.00,,,0.00,meteohub,2013-04-14 04:28:00,
2013-04-14 00:33:00,41.7,39.9,30.01,West,279,0.0,1.0,93,0.00,,,0.00,meteohub,2013-04-14 04:33:00,
2013-04-14 00:39:00,41.4,39.6,30.01,West,279,1.0,1.0,93,0.00,,,0.00,meteohub,2013-04-14 04:39:00,
2013-04-14 00:44:00,41.0,39.2,30.01,West,279,0.0,2.0,93,0.00,,,0.00,meteohub,2013-04-14 04:44:00,
2013-04-14 00:49:00,40.6,38.8,30.01,West,279,0.0,2.0,93,0.00,,,0.00,meteohub,2013-04-14 04:49:00,
2013-04-14 00:54:00,40.5,38.7,30.01,West,279,0.0,2.0,93,0.00,,,0.00,meteohub,2013-04-14 04:54:00,
2013-04-14 01:00:00,40.1,38.3,30.01,West,279,0.0,0.0,93,0.00,,,0.00,meteohub,2013-04-14 05:00:00,
2013-04-14 01:05:00,39.7,37.9,30.01,West,279,0.0,0.0,93,0.00,,,0.00,meteohub,2013-04-14 05:05:00,
2013-04-14 01:10:00,39.4,37.6,30.01,West,279,0.0,0.0,93,0.00,,,0.00,meteohub,2013-04-14 05:10:00,
2013-04-14 01:15:00,39.0,37.2,30.01,West,279,0.0,0.0,93,0.00,,,0.00,meteohub,2013-04-14 05:15:00,
2013-04-14 01:21:00,38.7,36.9,30.01,West,279,0.0,2.0,93,0.00,,,0.00,meteohub,2013-04-14 05:21:00,
2013-04-14 01:26:00,38.3,36.5,30.00,West,279,0.0,2.0,93,0.00,,,0.00,meteohub,2013-04-14 05:26:00,
2013-04-14 01:31:00,37.9,36.3,30.00,West,279,0.0,2.0,94,0.00,,,0.00,meteohub,2013-04-14 05:31:00,
2013-04-14 01:36:00,37.9,36.3,30.00,West,279,0.0,2.0,94,0.00,,,0.00,meteohub,2013-04-14 05:36:00,
2013-04-14 01:41:00,37.8,36.1,30.00,West,279,0.0,1.0,94,0.00,,,0.00,meteohub,2013-04-14 05:41:00,
2013-04-14 01:46:00,37.4,35.8,30.00,West,279,0.0,0.0,94,0.00,,,0.00,meteohub,2013-04-14 05:46:00,
2013-04-14 01:52:00,37.2,35.6,30.00,West,279,0.0,0.0,94,0.00,,,0.00,meteohub,2013-04-14 05:52:00,
2013-04-14 01:57:00,37.0,35.4,30.00,West,279,0.0,0.0,94,0.00,,,0.00,meteohub,2013-04-14 05:57:00,
2013-04-14 02:02:00,37.2,35.6,30.01,West,279,1.0,1.0,94,0.00,,,0.00,meteohub,2013-04-14 06:02:00,
2013-04-14 02:07:00,37.4,36.1,30.00,West,279,2.0,2.0,95,0.00,,,0.00,meteohub,2013-04-14 06:07:00,
2013-04-14 02:12:00,37.9,36.7,30.00,West,279,0.0,3.0,95,0.00,,,0.00,meteohub,2013-04-14 06:12:00,
2013-04-14 02:17:00,38.5,37.2,30.00,West,279,2.0,3.0,95,0.00,,,0.00,meteohub,2013-04-14 06:17:00,
2013-04-14 02:22:00,39.0,37.8,30.00,West,279,1.0,3.0,95,0.00,,,0.00,meteohub,2013-04-14 06:22:00,
2013-04-14 02:28:00,39.2,37.9,30.00,West,279,2.0,3.0,95,0.00,,,0.00,meteohub,2013-04-14 06:28:00,
2013-04-14 02:33:00,39.4,38.1,30.00,NW,306,3.0,3.0,95,0.00,,,0.00,meteohub,2013-04-14 06:33:00,
2013-04-14 02:38:00,39.7,38.5,30.00,NW,306,3.0,4.0,95,0.00,,,0.00,meteohub,2013-04-14 06:38:00,
2013-04-14 02:43:00,40.3,39.0,30.00,NW,306,2.0,5.0,95,0.00,,,0.00,meteohub,2013-04-14 06:43:00,
2013-04-14 02:49:00,40.6,39.4,30.00,NW,304,2.0,5.0,95,0.00,,,0.00,meteohub,2013-04-14 06:49:00,
2013-04-14 02:54:00,40.8,39.6,30.00,NW,317,3.0,5.0,95,0.00,,,0.00,meteohub,2013-04-14 06:54:00,
2013-04-14 02:59:00,41.2,39.9,30.00,NW,316,3.0,5.0,95,0.00,,,0.00,meteohub,2013-04-14 06:59:00,
2013-04-14 03:04:00,41.4,39.7,30.00,NW,304,3.0,5.0,94,0.00,,,0.00,meteohub,2013-04-14 07:04:00,
2013-04-14 03:10:00,41.4,39.7,30.00,NW,326,2.0,5.0,94,0.00,,,0.00,meteohub,2013-04-14 07:10:00,
2013-04-14 03:15:00,41.4,39.7,30.00,NW,325,1.0,5.0,94,0.00,,,0.00,meteohub,2013-04-14 07:15:00,
2013-04-14 03:20:00,41.4,39.7,30.00,NW,325,0.0,4.0,94,0.00,,,0.00,meteohub,2013-04-14 07:20:00,
2013-04-14 03:25:00,41.2,39.6,30.00,NW,314,2.0,4.0,94,0.00,,,0.00,meteohub,2013-04-14 07:25:00,
2013-04-14 03:30:00,41.4,39.7,30.00,NW,312,1.0,5.0,94,0.00,,,0.00,meteohub,2013-04-14 07:30:00,
2013-04-14 03:35:00,41.4,39.6,30.00,NW,317,3.0,5.0,93,0.00,,,0.00,meteohub,2013-04-14 07:35:00,
2013-04-14 03:40:00,41.4,39.6,30.00,NW,311,2.0,5.0,93,0.00,,,0.00,meteohub,2013-04-14 07:40:00,
2013-04-14 03:46:00,41.4,39.6,30.00,NW,321,4.0,5.0,93,0.00,,,0.00,meteohub,2013-04-14 07:46:00,
2013-04-14 03:51:00,41.4,39.6,30.00,NW,304,5.0,5.0,93,0.00,,,0.00,meteohub,2013-04-14 07:51:00,
2013-04-14 03:56:00,41.4,39.6,30.00,NW,311,3.0,5.0,93,0.00,,,0.00,meteohub,2013-04-14 07:56:00,
2013-04-14 04:01:00,41.4,39.6,30.00,NW,311,3.0,5.0,93,0.00,,,0.00,meteohub,2013-04-14 08:01:00,
2013-04-14 04:07:00,41.5,39.7,30.00,NW,317,3.0,5.0,93,0.00,,,0.00,meteohub,2013-04-14 08:07:00,
2013-04-14 04:12:00,41.5,39.7,30.00,NW,317,0.0,5.0,93,0.00,,,0.00,meteohub,2013-04-14 08:12:00,
2013-04-14 04:17:00,41.7,39.9,30.00,NW,325,5.0,5.0,93,0.00,,,0.00,meteohub,2013-04-14 08:17:00,
2013-04-14 04:22:00,41.9,40.1,30.00,NW,308,0.0,7.0,93,0.00,,,0.00,meteohub,2013-04-14 08:22:00,
2013-04-14 04:27:00,42.1,40.3,30.00,NW,309,1.0,7.0,93,0.00,,,0.00,meteohub,2013-04-14 08:27:00,
2013-04-14 04:32:00,42.1,40.3,30.00,WNW,296,4.0,7.0,93,0.00,,,0.00,meteohub,2013-04-14 08:32:00,
2013-04-14 04:38:00,42.3,40.5,30.00,NW,309,1.0,9.0,93,0.00,,,0.00,meteohub,2013-04-14 08:38:00,
2013-04-14 04:43:00,42.3,40.5,30.00,NW,317,2.0,9.0,93,0.00,,,0.00,meteohub,2013-04-14 08:43:00,
2013-04-14 04:48:00,42.3,40.5,30.00,NW,304,0.0,9.0,93,0.00,,,0.00,meteohub,2013-04-14 08:48:00,
2013-04-14 04:54:00,42.3,40.5,30.00,NW,304,0.0,4.0,93,0.00,,,0.00,meteohub,2013-04-14 08:54:00,
2013-04-14 04:59:00,42.3,40.5,30.01,NW,304,0.0,3.0,93,0.00,,,0.00,meteohub,2013-04-14 08:59:00,
2013-04-14 05:04:00,42.4,40.6,30.01,NW,304,0.0,2.0,93,0.00,,,0.00,meteohub,2013-04-14 09:04:00,
2013-04-14 05:10:00,42.4,40.6,30.01,NW,304,1.0,3.0,93,0.00,,,0.00,meteohub,2013-04-14 09:10:00,
2013-04-14 05:15:00,42.4,40.6,30.01,NW,304,2.0,3.0,93,0.00,,,0.00,meteohub,2013-04-14 09:15:00,
2013-04-14 05:20:00,42.4,40.6,30.01,NW,304,0.0,3.0,93,0.00,,,0.00,meteohub,2013-04-14 09:20:00,
2013-04-14 05:26:00,42.4,40.6,30.01,NW,321,0.0,3.0,93,0.00,,,0.00,meteohub,2013-04-14 09:26:00,
2013-04-14 05:32:00,42.4,40.6,30.01,NW,321,0.0,3.0,93,0.00,,,0.00,meteohub,2013-04-14 09:32:00,
2013-04-14 05:37:00,42.4,40.6,30.01,NW,321,1.0,3.0,93,0.00,,,0.00,meteohub,2013-04-14 09:37:00,
2013-04-14 05:42:00,42.4,40.6,30.01,NW,321,0.0,3.0,93,0.00,,,0.00,meteohub,2013-04-14 09:42:00,
2013-04-14 05:47:00,42.4,40.6,30.01,NW,319,0.0,3.0,93,0.00,,,0.00,meteohub,2013-04-14 09:47:00,
2013-04-14 05:52:00,42.4,40.6,30.01,NW,319,0.0,3.0,93,0.00,,,0.00,meteohub,2013-04-14 09:52:00,
2013-04-14 05:57:00,42.4,40.6,30.01,NW,319,0.0,3.0,93,0.00,,,0.00,meteohub,2013-04-14 09:57:00,
2013-04-14 06:02:00,42.4,40.6,30.01,NW,319,1.0,2.0,93,0.00,,,0.00,meteohub,2013-04-14 10:02:00,
2013-04-14 06:07:00,42.3,40.5,30.01,NW,319,2.0,2.0,93,0.00,,,0.00,meteohub,2013-04-14 10:07:00,
2013-04-14 06:12:00,42.3,40.5,30.01,NW,319,0.0,2.0,93,0.00,,,0.00,meteohub,2013-04-14 10:12:00,
2013-04-14 06:18:00,42.3,40.5,30.01,NW,319,0.0,2.0,93,0.00,,,0.00,meteohub,2013-04-14 10:18:00,
2013-04-14 06:23:00,42.3,40.5,30.02,NW,319,0.0,2.0,93,0.00,,,0.00,meteohub,2013-04-14 10:23:00,
2013-04-14 06:28:00,42.3,40.5,30.02,NW,319,0.0,2.0,93,0.00,,,0.00,meteohub,2013-04-14 10:28:00,
2013-04-14 06:33:00,42.1,40.3,30.02,NW,319,0.0,1.0,93,0.00,,,0.00,meteohub,2013-04-14 10:33:00,
2013-04-14 06:38:00,42.1,40.5,30.02,NW,319,1.0,1.0,94,0.00,,,0.00,meteohub,2013-04-14 10:38:00,
2013-04-14 06:43:00,42.1,40.5,30.02,NW,319,2.0,2.0,94,0.00,,,0.00,meteohub,2013-04-14 10:43:00,
2013-04-14 06:48:00,42.3,40.6,30.03,NW,319,0.0,2.0,94,0.00,,,0.00,meteohub,2013-04-14 10:48:00,
2013-04-14 06:54:00,42.3,40.6,30.02,NW,319,0.0,2.0,94,0.00,,,0.00,meteohub,2013-04-14 10:54:00,
2013-04-14 06:59:00,42.4,40.8,30.02,NW,319,1.0,2.0,94,0.00,,,0.00,meteohub,2013-04-14 10:59:00,
2013-04-14 07:04:00,42.4,40.8,30.02,NW,319,1.0,1.0,94,0.00,,,0.00,meteohub,2013-04-14 11:04:00,
2013-04-14 07:09:00,42.6,41.0,30.03,NW,319,1.0,2.0,94,0.00,,,0.00,meteohub,2013-04-14 11:09:00,
2013-04-14 07:15:00,43.0,41.4,30.03,NW,319,2.0,2.0,94,0.00,,,0.00,meteohub,2013-04-14 11:15:00,
2013-04-14 07:20:00,43.3,41.7,30.03,NW,319,3.0,3.0,94,0.00,,,0.00,meteohub,2013-04-14 11:20:00,
2013-04-14 07:25:00,43.7,42.1,30.03,NW,319,3.0,4.0,94,0.00,,,0.00,meteohub,2013-04-14 11:25:00,
2013-04-14 07:30:00,43.9,42.3,30.03,NW,319,0.0,4.0,94,0.00,,,0.00,meteohub,2013-04-14 11:30:00,
2013-04-14 07:35:00,44.2,42.3,30.04,NW,326,2.0,5.0,93,0.00,,,0.00,meteohub,2013-04-14 11:35:00,
2013-04-14 07:41:00,44.8,42.8,30.04,NW,307,3.0,6.0,93,0.00,,,0.00,meteohub,2013-04-14 11:41:00,
2013-04-14 07:46:00,45.1,43.2,30.04,NW,322,1.0,6.0,93,0.00,,,0.00,meteohub,2013-04-14 11:46:00,
2013-04-14 07:51:00,45.1,43.0,30.04,NNW,327,2.0,6.0,92,0.00,,,0.00,meteohub,2013-04-14 11:51:00,
2013-04-14 07:57:00,45.3,42.8,30.04,NE,45,1.0,4.0,91,0.00,,,0.00,meteohub,2013-04-14 11:57:00,
2013-04-14 08:02:00,45.5,43.0,30.04,NW,313,2.0,4.0,91,0.00,,,0.00,meteohub,2013-04-14 12:02:00,
2013-04-14 08:07:00,45.9,43.2,30.04,NW,319,3.0,4.0,90,0.00,,,0.00,meteohub,2013-04-14 12:07:00,
2013-04-14 08:12:00,46.0,43.3,30.04,WNW,295,3.0,4.0,90,0.00,,,0.00,meteohub,2013-04-14 12:12:00,
2013-04-14 08:17:00,46.2,43.2,30.04,NW,313,2.0,5.0,89,0.00,,,0.00,meteohub,2013-04-14 12:17:00,
2013-04-14 08:23:00,46.6,43.2,30.04,NW,322,2.0,5.0,88,0.00,,,0.00,meteohub,2013-04-14 12:23:00,
2013-04-14 08:28:00,46.9,43.3,30.04,NNW,331,1.0,5.0,87,0.00,,,0.00,meteohub,2013-04-14 12:28:00,
2013-04-14 08:33:00,47.3,43.3,30.04,NW,326,1.0,5.0,86,0.00,,,0.00,meteohub,2013-04-14 12:33:00,
2013-04-14 08:38:00,47.7,43.3,30.04,NW,310,1.0,5.0,85,0.00,,,0.00,meteohub,2013-04-14 12:38:00,
2013-04-14 08:43:00,47.7,43.0,30.04,WNW,301,4.0,7.0,84,0.00,,,0.00,meteohub,2013-04-14 12:43:00,
2013-04-14 08:49:00,47.8,43.0,30.04,NW,324,2.0,7.0,83,0.00,,,0.00,meteohub,2013-04-14 12:49:00,
2013-04-14 08:54:00,48.2,43.0,30.04,NW,308,6.0,7.0,82,0.00,,,0.00,meteohub,2013-04-14 12:54:00,
2013-04-14 08:59:00,48.4,42.8,30.04,NNW,343,4.0,6.0,81,0.00,,,0.00,meteohub,2013-04-14 12:59:00,
2013-04-14 09:04:00,48.6,42.6,30.04,NNE,19,4.0,8.0,80,0.00,,,0.00,meteohub,2013-04-14 13:04:00,
2013-04-14 09:09:00,48.6,42.3,30.04,NW,324,3.0,9.0,79,0.00,,,0.00,meteohub,2013-04-14 13:09:00,
2013-04-14 09:14:00,48.6,42.1,30.05,NW,324,0.0,9.0,78,0.00,,,0.00,meteohub,2013-04-14 13:14:00,
2013-04-14 09:19:00,48.6,42.1,30.05,WNW,302,4.0,9.0,78,0.00,,,0.00,meteohub,2013-04-14 13:19:00,
2013-04-14 09:25:00,48.9,42.1,30.05,WNW,303,3.0,11.0,77,0.00,,,0.00,meteohub,2013-04-14 13:25:00,
2013-04-14 09:30:00,49.1,41.5,30.05,NNE,32,4.0,11.0,75,0.00,,,0.00,meteohub,2013-04-14 13:30:00,
2013-04-14 09:36:00,49.6,42.1,30.04,NW,314,3.0,10.0,75,0.00,,,0.00,meteohub,2013-04-14 13:36:00,
2013-04-14 09:41:00,50.2,41.9,30.05,North,5,3.0,10.0,73,0.00,,,0.00,meteohub,2013-04-14 13:41:00,
2013-04-14 09:46:00,50.4,41.7,30.05,NNE,22,4.0,12.0,72,0.00,,,0.00,meteohub,2013-04-14 13:46:00,
2013-04-14 09:52:00,50.9,42.3,30.05,NW,319,4.0,12.0,72,0.00,,,0.00,meteohub,2013-04-14 13:52:00,
2013-04-14 09:57:00,51.4,41.5,30.05,NW,325,6.0,12.0,69,0.00,,,0.00,meteohub,2013-04-14 13:57:00,
2013-04-14 10:02:00,51.4,41.5,30.04,NW,315,5.0,11.0,69,0.00,,,0.00,meteohub,2013-04-14 14:02:00,
2013-04-14 10:07:00,51.4,40.8,30.05,WNW,299,5.0,11.0,67,0.00,,,0.00,meteohub,2013-04-14 14:07:00,
2013-04-14 10:12:00,51.4,40.8,30.05,WNW,287,5.0,15.0,67,0.00,,,0.00,meteohub,2013-04-14 14:12:00,
2013-04-14 10:17:00,51.8,40.5,30.05,NW,319,3.0,15.0,65,0.00,,,0.00,meteohub,2013-04-14 14:17:00,
2013-04-14 10:22:00,52.0,40.1,30.05,NW,307,2.0,15.0,64,0.00,,,0.00,meteohub,2013-04-14 14:22:00,
2013-04-14 10:27:00,52.3,41.0,30.05,NW,319,10.0,13.0,65,0.00,,,0.00,meteohub,2013-04-14 14:27:00,
2013-04-14 10:32:00,52.9,41.0,30.05,NW,313,10.0,14.0,64,0.00,,,0.00,meteohub,2013-04-14 14:32:00,
2013-04-14 10:37:00,53.1,41.2,30.05,WNW,286,2.0,14.0,64,0.00,,,0.00,meteohub,2013-04-14 14:37:00,
2013-04-14 10:42:00,53.2,40.6,30.05,NW,317,3.0,11.0,62,0.00,,,0.00,meteohub,2013-04-14 14:42:00,
2013-04-14 10:47:00,53.4,40.3,30.05,NNE,28,1.0,11.0,61,0.00,,,0.00,meteohub,2013-04-14 14:47:00,
2013-04-14 10:52:00,53.1,39.9,30.05,NNW,346,5.0,15.0,61,0.00,,,0.00,meteohub,2013-04-14 14:52:00,
2013-04-14 10:57:00,53.4,39.9,30.05,East,87,2.0,15.0,60,0.00,,,0.00,meteohub,2013-04-14 14:57:00,
2013-04-14 11:02:00,53.8,39.4,30.05,WSW,240,2.0,15.0,58,0.00,,,0.00,meteohub,2013-04-14 15:02:00,
2013-04-14 11:07:00,53.2,38.8,30.05,SSE,153,4.0,13.0,58,0.00,,,0.00,meteohub,2013-04-14 15:07:00,
2013-04-14 11:12:00,53.2,38.8,30.05,WNW,284,6.0,13.0,58,0.00,,,0.00,meteohub,2013-04-14 15:12:00,
2013-04-14 11:17:00,53.2,37.9,30.05,WSW,244,4.0,13.0,56,0.00,,,0.00,meteohub,2013-04-14 15:17:00,
2013-04-14 11:22:00,53.2,38.5,30.05,East,82,3.0,12.0,57,0.00,,,0.00,meteohub,2013-04-14 15:22:00,
2013-04-14 11:27:00,53.4,39.0,30.05,West,277,6.0,12.0,58,0.00,,,0.00,meteohub,2013-04-14 15:27:00,
2013-04-14 11:32:00,53.8,39.4,30.04,NW,309,4.0,11.0,58,0.00,,,0.00,meteohub,2013-04-14 15:32:00,
2013-04-14 11:38:00,54.1,38.8,30.04,NW,320,12.0,13.0,56,0.00,,,0.00,meteohub,2013-04-14 15:38:00,
2013-04-14 11:43:00,54.0,39.0,30.04,NNE,30,3.0,15.0,57,0.00,,,0.00,meteohub,2013-04-14 15:43:00,
2013-04-14 11:48:00,54.1,38.3,30.04,East,87,3.0,15.0,55,0.00,,,0.00,meteohub,2013-04-14 15:48:00,
2013-04-14 11:53:00,54.3,39.0,30.04,North,355,3.0,15.0,56,0.00,,,0.00,meteohub,2013-04-14 15:53:00,
2013-04-14 11:59:00,54.3,39.0,30.04,WNW,291,9.0,12.0,56,0.00,,,0.00,meteohub,2013-04-14 15:59:00,
2013-04-14 12:04:00,54.1,38.3,30.04,NNW,328,12.0,16.0,55,0.00,,,0.00,meteohub,2013-04-14 16:04:00,
2013-04-14 12:09:00,53.6,37.8,30.04,ENE,74,3.0,16.0,55,0.00,,,0.00,meteohub,2013-04-14 16:09:00,
2013-04-14 12:11:00,53.4,37.6,30.04,NW,304,11.0,16.0,55,0.00,,,0.00,meteohub,2013-04-14 16:11:00,
2013-04-14 12:17:00,53.2,37.4,30.04,NW,322,3.0,18.0,55,0.00,,,0.00,meteohub,2013-04-14 16:17:00,
2013-04-14 12:27:00,52.9,38.1,30.04,NW,309,5.0,18.0,57,0.00,,,0.00,meteohub,2013-04-14 16:27:00,
2013-04-14 12:32:00,52.5,38.1,30.04,WNW,296,9.0,15.0,58,0.00,,,0.00,meteohub,2013-04-14 16:32:00,
2013-04-14 12:37:00,52.0,38.5,30.04,NW,313,1.0,13.0,60,0.00,,,0.00,meteohub,2013-04-14 16:37:00,
2013-04-14 12:42:00,51.4,40.1,30.04,NW,306,7.0,12.0,65,0.00,,,0.00,meteohub,2013-04-14 16:42:00,
2013-04-14 12:47:00,50.7,40.5,30.04,NW,309,3.0,13.0,68,0.00,,,0.00,meteohub,2013-04-14 16:47:00,
2013-04-14 12:52:00,50.7,40.5,30.04,NE,43,2.0,13.0,68,0.00,,,0.00,meteohub,2013-04-14 16:52:00,
2013-04-14 12:58:00,50.7,40.5,30.04,NW,306,5.0,13.0,68,0.00,,,0.00,meteohub,2013-04-14 16:58:00,
2013-04-14 13:03:00,50.7,40.5,30.04,NNW,328,2.0,9.0,68,0.00,,,0.00,meteohub,2013-04-14 17:03:00,
2013-04-14 13:08:00,50.5,40.5,30.04,NW,312,1.0,9.0,68,0.00,,,0.00,meteohub,2013-04-14 17:08:00,
2013-04-14 13:13:00,50.4,41.0,30.04,NW,316,0.0,8.0,70,0.00,,,0.00,meteohub,2013-04-14 17:13:00,
2013-04-14 13:18:00,50.4,41.4,30.04,ENE,76,2.0,8.0,71,0.00,,,0.00,meteohub,2013-04-14 17:18:00,
2013-04-14 13:23:00,50.4,41.4,30.04,NW,321,1.0,8.0,71,0.00,,,0.00,meteohub,2013-04-14 17:23:00,
2013-04-14 13:29:00,50.7,42.1,30.04,NW,315,2.0,5.0,72,0.00,,,0.00,meteohub,2013-04-14 17:29:00,
2013-04-14 13:34:00,51.3,42.3,30.04,ENE,70,4.0,5.0,71,0.00,,,0.00,meteohub,2013-04-14 17:34:00,
2013-04-14 13:39:00,51.3,41.9,30.05,NNE,13,1.0,7.0,70,0.00,,,0.00,meteohub,2013-04-14 17:39:00,
2013-04-14 13:44:00,51.4,41.9,30.05,ESE,114,5.0,7.0,70,0.00,,,0.00,meteohub,2013-04-14 17:44:00,
2013-04-14 13:50:00,50.7,41.0,30.05,ENE,60,3.0,7.0,69,0.00,,,0.00,meteohub,2013-04-14 17:50:00,
2013-04-14 13:55:00,50.5,40.8,30.05,East,94,5.0,7.0,69,0.00,,,0.00,meteohub,2013-04-14 17:55:00,
2013-04-14 14:00:00,50.7,41.4,30.05,SSE,148,2.0,8.0,70,0.00,,,0.00,meteohub,2013-04-14 18:00:00,
2013-04-14 14:06:00,50.7,41.0,30.05,East,93,2.0,8.0,69,0.00,,,0.00,meteohub,2013-04-14 18:06:00,
2013-04-14 14:11:00,50.2,40.1,30.05,East,91,3.0,6.0,68,0.00,,,0.00,meteohub,2013-04-14 18:11:00,
2013-04-14 14:16:00,49.6,40.3,30.05,East,86,2.0,7.0,70,0.00,,,0.00,meteohub,2013-04-14 18:16:00,
2013-04-14 14:21:00,49.3,39.9,30.05,East,83,1.0,7.0,70,0.00,,,0.00,meteohub,2013-04-14 18:21:00,
2013-04-14 14:27:00,49.3,40.3,30.05,East,85,1.0,7.0,71,0.00,,,0.00,meteohub,2013-04-14 18:27:00,
2013-04-14 14:32:00,49.6,39.9,30.05,ESE,107,3.0,7.0,69,0.00,,,0.00,meteohub,2013-04-14 18:32:00,
2013-04-14 14:37:00,50.2,40.1,30.05,South,170,1.0,6.0,68,0.00,,,0.00,meteohub,2013-04-14 18:37:00,
2013-04-14 14:42:00,50.7,40.1,30.05,SW,219,2.0,6.0,67,0.00,,,0.00,meteohub,2013-04-14 18:42:00,
2013-04-14 14:47:00,51.1,40.1,30.05,WNW,292,0.0,6.0,66,0.00,,,0.00,meteohub,2013-04-14 18:47:00,
2013-04-14 14:52:00,51.3,39.0,30.04,East,90,3.0,5.0,63,0.00,,,0.00,meteohub,2013-04-14 18:52:00,
2013-04-14 14:58:00,51.4,38.8,30.04,SE,125,1.0,5.0,62,0.00,,,0.00,meteohub,2013-04-14 18:58:00,
2013-04-14 15:03:00,52.0,36.3,30.05,ENE,69,2.0,8.0,55,0.00,,,0.00,meteohub,2013-04-14 19:03:00,
2013-04-14 15:08:00,52.2,36.9,30.05,NE,53,1.0,8.0,56,0.00,,,0.00,meteohub,2013-04-14 19:08:00,
2013-04-14 15:13:00,52.2,35.1,30.05,East,79,6.0,8.0,52,0.00,,,0.00,meteohub,2013-04-14 19:13:00,
2013-04-14 15:18:00,52.0,34.3,30.05,East,88,2.0,9.0,51,0.00,,,0.00,meteohub,2013-04-14 19:18:00,
2013-04-14 15:23:00,52.0,34.9,30.05,ENE,67,8.0,10.0,52,0.00,,,0.00,meteohub,2013-04-14 19:23:00,
2013-04-14 15:29:00,51.1,34.5,30.05,ENE,78,7.0,10.0,53,0.00,,,0.00,meteohub,2013-04-14 19:29:00,
2013-04-14 15:34:00,50.4,35.2,30.05,ENE,74,3.0,11.0,56,0.00,,,0.00,meteohub,2013-04-14 19:34:00,
2013-04-14 15:39:00,50.0,35.8,30.05,ENE,71,3.0,11.0,58,0.00,,,0.00,meteohub,2013-04-14 19:39:00,
2013-04-14 15:44:00,50.0,36.3,30.05,ESE,110,2.0,11.0,59,0.00,,,0.00,meteohub,2013-04-14 19:44:00,
2013-04-14 15:49:00,49.8,36.1,30.05,East,90,3.0,11.0,59,0.00,,,0.00,meteohub,2013-04-14 19:49:00,
2013-04-14 15:54:00,49.6,36.7,30.05,East,94,2.0,8.0,61,0.00,,,0.00,meteohub,2013-04-14 19:54:00,
2013-04-14 15:59:00,49.6,36.7,30.05,ENE,62,1.0,7.0,61,0.00,,,0.00,meteohub,2013-04-14 19:59:00,
2013-04-14 16:05:00,49.8,36.9,30.05,ENE,69,1.0,6.0,61,0.00,,,0.00,meteohub,2013-04-14 20:05:00,
2013-04-14 16:10:00,50.2,37.6,30.05,ENE,71,1.0,3.0,62,0.00,,,0.00,meteohub,2013-04-14 20:10:00,
2013-04-14 16:15:00,50.2,37.6,30.06,ENE,71,0.0,3.0,62,0.00,,,0.00,meteohub,2013-04-14 20:15:00,
2013-04-14 16:20:00,50.7,36.5,30.05,ESE,113,4.0,4.0,58,0.00,,,0.00,meteohub,2013-04-14 20:20:00,
2013-04-14 16:25:00,51.6,34.5,30.05,NE,54,5.0,10.0,52,0.00,,,0.00,meteohub,2013-04-14 20:25:00,
2013-04-14 16:31:00,52.2,34.2,30.06,ENE,58,5.0,10.0,50,0.00,,,0.00,meteohub,2013-04-14 20:31:00,
2013-04-14 16:36:00,52.0,34.0,30.06,East,84,9.0,10.0,50,0.00,,,0.00,meteohub,2013-04-14 20:36:00,
2013-04-14 16:42:00,51.8,33.8,30.05,ENE,69,3.0,10.0,50,0.00,,,0.00,meteohub,2013-04-14 20:42:00,
2013-04-14 16:47:00,52.0,32.9,30.06,NE,51,2.0,11.0,48,0.00,,,0.00,meteohub,2013-04-14 20:47:00,
2013-04-14 16:52:00,52.3,32.7,30.06,NE,51,2.0,11.0,47,0.00,,,0.00,meteohub,2013-04-14 20:52:00,
2013-04-14 16:57:00,52.9,32.7,30.06,SSW,196,2.0,11.0,46,0.00,,,0.00,meteohub,2013-04-14 20:57:00,
2013-04-14 17:02:00,52.9,31.6,30.06,ENE,57,5.0,10.0,44,0.00,,,0.00,meteohub,2013-04-14 21:02:00,
2013-04-14 17:08:00,52.7,32.0,30.06,ESE,110,1.0,10.0,45,0.00,,,0.00,meteohub,2013-04-14 21:08:00,
2013-04-14 17:13:00,52.5,32.4,30.07,ENE,69,0.0,10.0,46,0.00,,,0.00,meteohub,2013-04-14 21:13:00,
2013-04-14 17:18:00,53.2,31.8,30.06,ENE,67,4.0,10.0,44,0.00,,,0.00,meteohub,2013-04-14 21:18:00,
2013-04-14 17:23:00,53.4,30.4,30.07,ENE,76,11.0,11.0,41,0.00,,,0.00,meteohub,2013-04-14 21:23:00,
2013-04-14 17:28:00,52.9,30.4,30.07,ENE,61,5.0,13.0,42,0.00,,,0.00,meteohub,2013-04-14 21:28:00,
2013-04-14 17:34:00,53.1,31.1,30.08,ENE,64,4.0,13.0,43,0.00,,,0.00,meteohub,2013-04-14 21:34:00,
2013-04-14 17:39:00,52.9,30.9,30.08,East,92,7.0,13.0,43,0.00,,,0.00,meteohub,2013-04-14 21:39:00,
2013-04-14 17:44:00,52.9,30.9,30.08,ESE,123,3.0,16.0,43,0.00,,,0.00,meteohub,2013-04-14 21:44:00,
2013-04-14 17:50:00,52.5,30.0,30.09,NE,54,2.0,16.0,42,0.00,,,0.00,meteohub,2013-04-14 21:50:00,
2013-04-14 17:55:00,52.3,31.1,30.09,East,82,9.0,12.0,44,0.00,,,0.00,meteohub,2013-04-14 21:55:00,
2013-04-14 18:00:00,52.2,30.4,30.09,North,355,6.0,12.0,43,0.00,,,0.00,meteohub,2013-04-14 22:00:00,
2013-04-14 18:05:00,52.0,30.2,30.10,NE,42,1.0,10.0,43,0.00,,,0.00,meteohub,2013-04-14 22:05:00,
2013-04-14 18:10:00,51.6,30.4,30.10,NE,48,1.0,9.0,44,0.00,,,0.00,meteohub,2013-04-14 22:10:00,
2013-04-14 18:15:00,51.3,30.0,30.11,ENE,69,3.0,9.0,44,0.00,,,0.00,meteohub,2013-04-14 22:15:00,
2013-04-14 18:20:00,51.1,30.6,30.11,East,86,2.0,8.0,45,0.00,,,0.00,meteohub,2013-04-14 22:20:00,
2013-04-14 18:26:00,51.1,30.6,30.12,NE,50,2.0,8.0,45,0.00,,,0.00,meteohub,2013-04-14 22:26:00,
2013-04-14 18:31:00,51.1,30.6,30.12,ENE,72,2.0,8.0,45,0.00,,,0.00,meteohub,2013-04-14 22:31:00,
2013-04-14 18:36:00,50.9,30.9,30.12,East,90,1.0,9.0,46,0.00,,,0.00,meteohub,2013-04-14 22:36:00,
2013-04-14 18:41:00,50.5,30.6,30.12,East,84,5.0,9.0,46,0.00,,,0.00,meteohub,2013-04-14 22:41:00,
2013-04-14 18:46:00,50.5,30.6,30.12,ENE,67,3.0,9.0,46,0.00,,,0.00,meteohub,2013-04-14 22:46:00,
2013-04-14 18:52:00,50.4,30.4,30.12,East,86,2.0,9.0,46,0.00,,,0.00,meteohub,2013-04-14 22:52:00,
2013-04-14 18:57:00,50.2,31.3,30.12,NNE,26,2.0,8.0,48,0.00,,,0.00,meteohub,2013-04-14 22:57:00,
2013-04-14 19:02:00,49.8,30.4,30.12,East,82,3.0,8.0,47,0.00,,,0.00,meteohub,2013-04-14 23:02:00,
2013-04-14 19:07:00,49.6,30.7,30.12,East,101,5.0,7.0,48,0.00,,,0.00,meteohub,2013-04-14 23:07:00,
2013-04-14 19:12:00,49.5,30.0,30.13,East,92,2.0,7.0,47,0.00,,,0.00,meteohub,2013-04-14 23:12:00,
2013-04-14 19:17:00,49.3,30.4,30.13,ENE,77,1.0,7.0,48,0.00,,,0.00,meteohub,2013-04-14 23:17:00,
2013-04-14 19:22:00,48.9,30.6,30.13,ENE,78,1.0,6.0,49,0.00,,,0.00,meteohub,2013-04-14 23:22:00,
2013-04-14 19:28:00,48.6,30.7,30.14,East,84,1.0,6.0,50,0.00,,,0.00,meteohub,2013-04-14 23:28:00,
2013-04-14 19:32:00,48.4,30.6,30.14,ENE,71,1.0,5.0,50,0.00,,,0.00,meteohub,2013-04-14 23:32:00,
2013-04-14 19:38:00,48.2,30.4,30.14,ENE,73,2.0,7.0,50,0.00,,,0.00,meteohub,2013-04-14 23:38:00,
2013-04-14 19:43:00,47.8,30.6,30.15,ENE,59,2.0,7.0,51,0.00,,,0.00,meteohub,2013-04-14 23:43:00,
2013-04-14 19:48:00,47.7,30.4,30.16,ENE,78,2.0,5.0,51,0.00,,,0.00,meteohub,2013-04-14 23:48:00,
2013-04-14 19:54:00,47.3,30.6,30.16,ENE,78,1.0,5.0,52,0.00,,,0.00,meteohub,2013-04-14 23:54:00,
2013-04-14 19:59:00,47.1,30.9,30.16,ENE,78,3.0,5.0,53,0.00,,,0.00,meteohub,2013-04-14 23:59:00,
2013-04-14 20:04:00,46.8,30.6,30.17,ENE,78,1.0,3.0,53,0.00,,,0.00,meteohub,2013-04-15 00:04:00,
2013-04-14 20:09:00,46.4,31.1,30.17,ENE,78,2.0,3.0,55,0.00,,,0.00,meteohub,2013-04-15 00:09:00,
2013-04-14 20:14:00,46.0,30.7,30.18,ENE,77,3.0,3.0,55,0.00,,,0.00,meteohub,2013-04-15 00:14:00,
2013-04-14 20:20:00,46.0,29.8,30.18,East,88,2.0,3.0,53,0.00,,,0.00,meteohub,2013-04-15 00:20:00,
2013-04-14 20:25:00,46.0,29.8,30.18,East,90,2.0,5.0,53,0.00,,,0.00,meteohub,2013-04-15 00:25:00,
2013-04-14 20:30:00,45.9,29.3,30.19,ENE,59,3.0,5.0,52,0.00,,,0.00,meteohub,2013-04-15 00:30:00,
2013-04-14 20:35:00,45.9,29.3,30.19,ENE,72,3.0,7.0,52,0.00,,,0.00,meteohub,2013-04-15 00:35:00,
2013-04-14 20:41:00,46.0,29.5,30.19,ENE,70,0.0,7.0,52,0.00,,,0.00,meteohub,2013-04-15 00:41:00,
2013-04-14 20:47:00,45.7,29.5,30.19,East,80,0.0,8.0,53,0.00,,,0.00,meteohub,2013-04-15 00:47:00,
2013-04-14 20:52:00,45.5,28.9,30.20,East,80,2.0,8.0,52,0.00,,,0.00,meteohub,2013-04-15 00:52:00,
2013-04-14 20:57:00,45.3,28.8,30.21,ESE,103,2.0,5.0,52,0.00,,,0.00,meteohub,2013-04-15 00:57:00,
2013-04-14 21:02:00,45.3,28.8,30.21,NE,55,1.0,7.0,52,0.00,,,0.00,meteohub,2013-04-15 01:02:00,
2013-04-14 21:07:00,45.3,29.1,30.21,ENE,64,1.0,7.0,53,0.00,,,0.00,meteohub,2013-04-15 01:07:00,
2013-04-14 21:12:00,45.1,28.9,30.22,East,89,2.0,7.0,53,0.00,,,0.00,meteohub,2013-04-15 01:12:00,
2013-04-14 21:17:00,45.0,28.9,30.22,ENE,72,3.0,7.0,53,0.00,,,0.00,meteohub,2013-04-15 01:17:00,
2013-04-14 21:22:00,45.0,28.9,30.22,East,80,1.0,7.0,53,0.00,,,0.00,meteohub,2013-04-15 01:22:00,
2013-04-14 21:27:00,45.0,28.4,30.23,ENE,59,3.0,7.0,52,0.00,,,0.00,meteohub,2013-04-15 01:27:00,
2013-04-14 21:32:00,45.0,28.9,30.23,North,0,2.0,8.0,53,0.00,,,0.00,meteohub,2013-04-15 01:32:00,
2013-04-14 21:37:00,44.8,28.8,30.23,East,81,2.0,8.0,53,0.00,,,0.00,meteohub,2013-04-15 01:37:00,
2013-04-14 21:43:00,44.4,28.8,30.23,East,80,2.0,7.0,54,0.00,,,0.00,meteohub,2013-04-15 01:43:00,
2013-04-14 21:48:00,44.2,28.6,30.23,East,91,2.0,5.0,54,0.00,,,0.00,meteohub,2013-04-15 01:48:00,
2013-04-14 21:53:00,44.2,28.6,30.23,NE,49,1.0,5.0,54,0.00,,,0.00,meteohub,2013-04-15 01:53:00,
2013-04-14 21:59:00,44.2,28.6,30.23,NNE,25,1.0,5.0,54,0.00,,,0.00,meteohub,2013-04-15 01:59:00,
2013-04-14 22:04:00,44.1,28.9,30.23,ENE,78,0.0,5.0,55,0.00,,,0.00,meteohub,2013-04-15 02:04:00,
2013-04-14 22:09:00,44.1,28.9,30.23,ENE,65,1.0,4.0,55,0.00,,,0.00,meteohub,2013-04-15 02:09:00,
2013-04-14 22:14:00,43.9,29.1,30.23,ENE,57,0.0,4.0,56,0.00,,,0.00,meteohub,2013-04-15 02:14:00,
2013-04-14 22:19:00,43.5,28.9,30.23,NE,36,0.0,4.0,56,0.00,,,0.00,meteohub,2013-04-15 02:19:00,
2013-04-14 22:24:00,43.3,28.8,30.23,NE,36,0.0,3.0,56,0.00,,,0.00,meteohub,2013-04-15 02:24:00,
2013-04-14 22:30:00,43.2,28.9,30.23,NE,36,1.0,3.0,57,0.00,,,0.00,meteohub,2013-04-15 02:30:00,
2013-04-14 22:35:00,43.0,29.7,30.23,East,97,2.0,3.0,59,0.00,,,0.00,meteohub,2013-04-15 02:35:00,
2013-04-14 22:40:00,42.8,29.1,30.23,NW,304,1.0,4.0,58,0.00,,,0.00,meteohub,2013-04-15 02:40:00,
2013-04-14 22:45:00,42.6,28.9,30.23,North,5,1.0,4.0,58,0.00,,,0.00,meteohub,2013-04-15 02:45:00,
2013-04-14 22:50:00,42.4,28.8,30.23,NE,44,2.0,4.0,58,0.00,,,0.00,meteohub,2013-04-15 02:50:00,
2013-04-14 22:55:00,42.4,29.1,30.23,NE,44,0.0,4.0,59,0.00,,,0.00,meteohub,2013-04-15 02:55:00,
2013-04-14 23:01:00,42.1,29.7,30.23,NE,44,0.0,3.0,61,0.00,,,0.00,meteohub,2013-04-15 03:01:00,
2013-04-14 23:06:00,41.7,29.3,30.24,NE,44,0.0,2.0,61,0.00,,,0.00,meteohub,2013-04-15 03:06:00,
2013-04-14 23:11:00,41.5,29.8,30.24,NE,44,0.0,2.0,63,0.00,,,0.00,meteohub,2013-04-15 03:11:00,
2013-04-14 23:17:00,41.2,30.0,30.24,North,5,0.0,3.0,64,0.00,,,0.00,meteohub,2013-04-15 03:17:00,
2013-04-14 23:22:00,40.8,29.7,30.25,North,5,0.0,3.0,64,0.00,,,0.00,meteohub,2013-04-15 03:22:00,
2013-04-14 23:27:00,40.5,29.7,30.25,North,5,0.0,2.0,65,0.00,,,0.00,meteohub,2013-04-15 03:27:00,
2013-04-14 23:32:00,40.3,30.2,30.25,North,5,0.0,2.0,67,0.00,,,0.00,meteohub,2013-04-15 03:32:00,
2013-04-14 23:38:00,39.9,29.8,30.25,North,5,0.0,2.0,67,0.00,,,0.00,meteohub,2013-04-15 03:38:00,
2013-04-14 23:43:00,39.7,29.7,30.25,North,5,0.0,2.0,67,0.00,,,0.00,meteohub,2013-04-15 03:43:00,
2013-04-14 23:48:00,39.6,29.8,30.25,NNE,22,1.0,3.0,68,0.00,,,0.00,meteohub,2013-04-15 03:48:00,
2013-04-14 23:53:00,39.6,29.8,30.25,ENE,71,0.0,3.0,68,0.00,,,0.00,meteohub,2013-04-15 03:53:00,
2013-04-14 23:59:00,39.7,30.0,30.25,ENE,71,0.0,3.0,68,0.00,,,0.00,meteohub,2013-04-15 03:59:00,